Location: Canet
(43.3261°N, 5.3723°E)
Time: 19:25:29
(UTC+00:00)

CREW DRAGON DEMO-1 DEB - Pass Details

Date: 24 January 2021
Orbit: 332 x 336 km, 51.6° (Epoch: 08 March)

Event Time Altitude Azimuth Distance (km) Brightness Sun altitude
Rises 17:32:15 0° 303° (WNW) 2,177 7.3 -9.7°
Reaches altitude 10° 17:34:17 10° 306° (NW) 1,325 6.1 -10.0°
Maximum altitude 17:37:14 69° 31° (NNE) 379 2.6 -10.6°
Enters shadow 17:39:50 12° 115° (ESE) 1,180 4.9 -11.0°
